Hourly Data Report for April 28, 2016

All times are specified in Local Standard Time (LST). Add 1 hour to adjust for Daylight Saving Time where and when it is observed.

Metadata including Station Name, Province, Latitude, Longitude, Elevation, Climate ID, WMO ID, TC ID
GRANBY
QUEBEC
Latitude: 45°22'22.000" N Longitude: 72°46'26.000" W Elevation: 86.00 m
Climate ID: 7022802 WMO ID: TC ID: MGB
Hourly Data Report for April 28, 2016
Temp Definition
°C

Dew Point Temp Definition
°C

Rel Hum Definition
%

Wind Dir Definition
10's deg
Wind Spd Definition
km/h

Visibility Definition
km

Stn Press Definition
kPa

Hmdx Definition

Wind Chill Definition

Weather Definition

00:00 -3.8 -8.5 70 20 2 100.38 -5 LegendNANA
01:00 -4.3 -7.9 76   0 100.38 LegendNANA
02:00 -4.9 -7.7 80 0 1 100.42 -5 LegendNANA
03:00 -4.9 -7.2 84 23 1 100.50 -5 LegendNANA
04:00 -2.0 -7.1 68 31 5 100.60 -4 LegendNANA
05:00 -2.8 -7.0 73 2 4 100.67 -4 LegendNANA
06:00 -1.4 -5.9 71 1 2 100.82 -2 LegendNANA
07:00 -0.3 -8.3 55 1 9 100.91 -3 LegendNANA
08:00 0.0 -8.7 52 35 10 101.00 -3 LegendNANA
09:00 1.2 -7.0 54 36 9 101.01 LegendNANA
10:00 1.7 -7.7 50 2 9 101.03 LegendNANA
11:00 2.0 -9.0 44 1 8 100.97 LegendNANA
12:00 2.9 -9.5 39 35 8 100.98 LegendNANA
13:00 4.6 -7.9 40 1 7 100.95 LegendNANA
14:00 5.3 -7.9 38 36 7 100.90 LegendNANA
15:00 5.5 -8.6 36 2 6 100.89 LegendNANA
16:00 5.1 -10.2 32 2 8 100.90 LegendNANA
17:00 5.4 -9.6 33 3 5 100.95 LegendNANA
18:00 4.8 -10.0 33 2 7 100.98 LegendNANA
19:00 4.0 -9.8 36 4 5 101.01 LegendNANA
20:00 1.0 -7.6 53   0 101.06 LegendNANA
21:00 0.0 -8.2 54 4 3 101.10 -1 LegendNANA
22:00 -0.8 -7.0 63 3 4 101.11 -2 LegendNANA
23:00 -1.0 -6.5 66 4 4 101.12 -2 LegendNANA

Notes on Data Quality.

Legend
  • E = Estimated
  • M = Missing
  • NA = Not Available
  • ‡ = Partner data that is not subject to review by the National Climate Archives